Regional Weather Roundup
Issued by NWS

Home | Current Version | Previous Version | Graphics & Text | Print | Product List | Glossary On
Versions: 1 2 3 4 5 6 7 8 9 10 11 12 13 14 15 16 17 18 19 20 21 22 23 24 25 26 27 28 29 30 31 32 33 34 35 36 37 38 39 40 41 42 43 44 45 46 47 48 49 50
000
ASUS43 KBIS 210410
RWRND

NORTH DAKOTA REGIONAL WEATHER ROUNDUP
NATIONAL WEATHER SERVICE BISMARCK ND
1000 PM CST TUE FEB 20 2018

NOTE: "FAIR" INDICATES FEW OR NO CLOUDS BELOW 12,000 FEET WITH NO
SIGNIFICANT WEATHER AND/OR OBSTRUCTIONS TO VISIBILITY.


NDZ001>003-009>011-017-210500-
NORTHWEST NORTH DAKOTA

CITY           SKY/WX    TMP DP  RH WIND       PRES   REMARKS
WILLISTON      CLEAR     -3 -11  68 SW13      30.20R WCI -22
MINOT          CLEAR      3  -6  66 SW21      30.15R WCI -18
MINOT AFB      CLEAR      2  -7  68 W18       30.14R WCI -19
$$

NDZ018>021-031>035-040>046-210500-
SOUTHWEST NORTH DAKOTA

CITY           SKY/WX    TMP DP  RH WIND       PRES   REMARKS
BISMARCK       CLEAR      1  -7  68 W10       30.27R WCI -15
DICKINSON      CLEAR     -6 -12  75 W13       30.17R WCI -25
GARRISON         N/A     -3  -9  75 W12       30.19R WCI -21
HETTINGER ARPT CLEAR     -6 -14  68 NW12      30.21R WCI -25
$$

NDZ004>008-012>016-024-026-027-054-210500-
NORTHEAST NORTH DAKOTA

CITY           SKY/WX    TMP DP  RH WIND       PRES   REMARKS
GRAND FORKS    MOCLDY     4  -3  73 W14       30.23R WCI -14
GRND FRKS AFB  FAIR       4  -4  69 W12       30.22R WCI -13
DEVILS LAKE    FAIR      -1  -6  79 W16       30.18R WCI -21
$$

NDZ022-023-025-028>030-036>039-047>053-210500-
SOUTHEAST NORTH DAKOTA

CITY           SKY/WX    TMP DP  RH WIND       PRES   REMARKS
FARGO          FAIR       3  -3  76 SW9       30.28R WCI -12
JAMESTOWN      CLEAR      2  -5  72 W10       30.23R WCI -14
$$




USA.gov is the U.S. government's official web portal to all federal, state and local government web resources and services.